CAPE
7 6 6 7 9 11 11 16 17 10 9 7 7 9 8 4 7 2 0 0 0 0 0 0 0 0 0 0 0 0 0 0 0 0 0 0 0 0 0 0 0 0 0 0 0 0 0 0 0 0 0 0 0 0
4 5 5 3 12 3 11 14 12 4 10 10 8 6 7 5 3 3 0 0 0 0 0 0 0 0 0 0 0 0 0 0 0 0 0 0 0 0 0 0 0 0 0 0 0 0 0 0 0 0 0 0 0 0
2 5 4 7 0 3 12 6 10 17 21 16 15 15 14 14 5 17 1 0 0 0 0 0 0 0 0 0 0 0 0 0 0 0 0 0 0 0 0 0 0 0 0 0 0 0 0 0 0 0 0 0 0 0
3 3 3 3 6 12 19 14 15 19 17 21 20 19 18 21 5 7 2 0 0 0 1 0 0 0 0 0 0 0 0 0 0 0 0 0 0 0 0 0 0 0 0 0 0 0 0 0 0 0 0 0 0 0
2 6 3 6 9 11 11 12 12 17 7 10 20 23 20 17 3 0 0 0 0 0 0 0 0 0 0 0 0 0 0 0 0 0 0 0 0 0 0 0 0 0 0 0 0 0 0 0 0 0 0 0 0 0
1 1 3 5 7 9 11 12 12 9 14 18 12 13 27 14 0 0 0 0 0 0 1 0 0 0 0 0 0 0 0 0 0 0 0 0 0 0 0 0 0 0 0 0 0 0 0 0 0 0 0 1 6 3
3 3 3 7 9 7 9 12 11 10 25 15 10 15 19 14 2 0 0 0 0 0 0 0 0 0 0 0 0 0 0 0 0 0 0 0 0 0 0 0 0 0 0 0 0 0 0 5 24 32 17 1 6 41
6 6 7 13 17 13 9 11 9 7 6 3 1 1 1 0 0 2 0 0 0 0 0 0 0 0 0 0 0 0 0 0 0 0 0 0 0 0 0 0 0 0 0 0 0 4 1 2 45 0 0 8 24 27
10 7 6 5 16 15 8 9 10 5 3 1 0 0 0 0 0 7 0 0 0 0 1 0 0 0 0 0 0 0 0 0 0 0 0 0 0 0 0 0 0 0 0 0 7 1 22 8 3 6 1 0 3 16
1 8 8 9 15 17 8 4 5 1 0 0 0 0 1 0 10 0 0 1 0 0 0 1 0 0 0 0 0 0 0 0 0 0 0 0 0 0 0 0 0 0 0 5 9 0 10 10 10 42 11 0 10 20
5 14 11 11 11 17 11 3 3 10 0 0 1 6 0 1 0 16 20 10 1 0 0 0 0 0 0 0 0 0 0 0 0 0 0 3 0 0 0 0 0 0 0 3 7 28 14 6 13 25 38 21 32 20
10 16 9 8 13 20 15 13 15 2 0 1 0 0 1 5 10 26 10 0 8 0 0 0 0 0 0 0 0 0 0 0 0 0 6 35 2 0 0 0 0 0 1 5 9 2 4 16 8 1 0 0 4 1
7 10 8 13 14 15 17 16 18 14 0 0 4 16 34 0 6 11 2 9 0 4 17 4 0 0 0 0 0 0 0 2 1 15 7 15 0 0 0 0 0 0 22 28 3 1 0 0 1 4 8 10 5 4
14 4 10 7 12 33 32 27 35 4 4 19 16 0 0 9 0 27 39 28 33 51 23 5 0 6 10 19 0 7 2 15 25 34 29 0 0 0 0 0 0 2 20 2 2 3 6 7 7 8 3 1 1 1
7 8 0 13 39 27 35 40 16 1 13 22 17 1 0 0 1 42 17 10 26 11 9 3 1 0 9 18 0 0 1 1 16 26 1 0 0 0 0 0 12 17 4 4 6 10 4 5 6 2 2 0 0 0
1 0 8 31 14 7 11 5 0 8 33 8 18 7 0 0 0 0 19 12 4 3 0 13 27 20 22 8 0 0 0 14 10 6 0 0 0 0 0 13 13 4 2 3 6 7 7 3 0 0 0 0 0 0
0 0 15 3 14 9 4 4 2 5 21 28 0 0 0 0 0 0 7 16 34 32 34 8 4 51 2 1 0 0 0 0 0 0 0 0 0 0 1 1 4 5 3 0 0 0 0 0 0 0 0 0 0 0
0 1 14 28 18 9 13 20 43 31 28 8 0 0 0 0 0 0 0 33 24 44 35 5 2 2 5 5 0 0 0 0 0 0 0 0 0 0 6 1 4 3 1 0 0 0 0 0 0 0 0 0 0 0
1 0 1 17 42 6 7 27 13 32 12 1 0 0 0 0 0 0 0 0 32 32 36 36 31 0 0 0 0 20 0 0 0 0 4 0 0 1 7 0 1 0 0 0 0 0 7 4 0 0 0 0 0 0
39 19 14 21 39 0 16 28 23 38 11 0 0 0 0 0 0 0 0 0 21 37 27 15 0 4 2 0 9 3 0 0 0 11 12 8 0 5 7 3 1 10 5 0 0 8 5 4 3 0 0 0 0 0
8 0 50 20 2 0 2 9 18 9 1 0 0 0 0 0 0 0 0 0 2 2 2 0 0 0 0 23 0 0 1 0 0 18 25 0 0 12 1 0 3 8 23 7 21 4 20 1 0 0 0 0 0 0
1 36 18 11 1 9 5 0 2 0 0 0 0 0 0 0 0 0 0 0 0 0 0 0 0 0 0 8 47 31 18 8 79 68 1 0 33 32 8 15 0 3 21 28 13 31 13 0 0 0 0 0 0 0
9 14 10 30 19 3 0 0 8 7 17 1 0 0 4 20 5 0 0 0 0 0 0 0 0 0 0 0 16 7 11 8 34 31 26 31 17 17 6 20 17 12 15 11 18 1 0 0 0 0 0 0 0 0
3 21 23 15 10 0 0 2 1 5 11 1 13 11 15 6 0 1 5 1 1 0 0 0 0 0 0 2 6 1 0 59 39 31 8 13 22 25 25 8 1 15 19 2 0 0 0 0 0 0 0 0 0 0
8 0 0 0 1 16 3 6 22 24 15 21 24 6 0 2 2 6 2 0 0 0 0 0 0 0 0 0 3 7 34 51 49 10 26 19 26 11 2 3 3 1 0 6 0 0 0 0 0 0 0 0 0 0
3 0 2 4 6 3 1 0 8 14 8 6 28 32 7 22 8 13 27 17 1 0 0 4 0 0 0 1 3 17 70 30 7 10 2 22 13 7 0 5 5 12 12 16 1 0 0 0 0 8 14 3 0 0
8 0 0 0 0 0 2 0 0 11 9 13 24 19 13 14 9 6 0 0 0 0 0 0 0 3 3 41 68 77 49 33 1 0 24 32 0 0 14 16 22 15 1 3 0 0 0 1 3 14 9 0 0 0
2 0 0 2 4 7 7 1 5 10 21 19 23 8 7 5 1 0 0 0 0 0 0 0 16 2 20 32 48 30 52 63 55 30 29 63 5 4 0 0 0 1 0 0 0 0 0 2 13 1 0 0 0 0
0 0 0 0 0 2 0 0 0 1 26 57 42 30 21 6 0 0 0 0 0 1 0 0 1 63 52 82 66 45 41 35 19 19 22 39 0 3 0 0 0 0 0 0 0 0 1 15 13 10 0 0 0 0
0 0 0 0 7 0 0 0 0 0 0 0 0 0 0 0 0 0 0 0 2 0 0 5 17 39 35 52 42 30 35 9 18 0 3 15 0 0 0 0 0 0 0 0 0 0 0 2 0 0 0 0 0 0
0 0 0 0 0 0 0 0 0 0 0 0 0 0 0 0 27 14 0 0 0 4 2 16 55 45 34 7 6 23 18 9 0 0 0 0 0 0 0 0 0 0 0 0 0 3 6 3 0 0 0 0 0 0
0 0 0 0 0 0 0 0 0 0 0 0 0 0 0 0 20 24 16 0 6 0 2 4 7 11 44 19 1 0 1 0 0 0 0 0 0 0 0 0 0 0 0 0 0 0 0 0 0 2 0 0 0 0
0 0 0 0 0 0 0 0 0 0 0 0 0 0 0 0 1 38 15 6 13 20 4 0 9 19 15 2 0 2 0 5 0 0 0 0 0 0 0 0 0 0 0 0 1 0 0 0 0 1 0 0 0 0
CIN
-0 -0 -0 -0 -0 -0 -0 -0 -0 -0 -0 -0 -0 -0 -0 -0 -0 -0 -0 -0 -0 -0 -0 -0 -0 -0 -0 -0 -0 -0 -0 -0 -0 -0 -0 -0 -0 -0 -0 -0 -0 -0 -0 -0 -0 -0 -0 -0 -0 -0 -0 -0 -0 -0
-0 -0 -0 -0 -1 -0 -0 -0 -0 -0 -0 -0 -0 -0 -0 -0 -0 -0 -0 -0 -0 -0 -0 -0 -0 -0 -0 -0 -0 -0 -0 -0 -0 -0 -0 -0 -0 -0 -0 -0 -0 -0 -0 -0 -0 -0 -0 -0 -0 -0 -0 -0 -0 -0
-0 -0 -0 -0 -0 -0 -0 -0 -0 -1 -1 -0 -0 -0 -0 -1 -0 -0 -0 -0 -0 -0 -0 -0 -0 -0 -0 -0 -0 -0 -0 -0 -0 -0 -0 -0 -0 -0 -0 -0 -0 -0 -0 -0 -0 -0 -0 -0 -0 -0 -0 -0 -0 -0
-0 -0 -0 -0 -0 -0 -2 -0 -0 -2 -1 -1 -0 -1 -1 -2 -1 -0 -0 -0 -0 -0 -0 -0 -0 -0 -0 -0 -0 -0 -0 -0 -0 -0 -0 -0 -0 -0 -0 -0 -0 -0 -0 -0 -0 -0 -0 -0 -0 -0 -0 -0 -0 -0
-0 -0 -0 -0 -0 -0 -0 -0 -0 -0 -0 -0 -1 -1 -2 -2 -0 -0 -0 -0 -0 -0 -0 -0 -0 -0 -0 -0 -0 -0 -0 -0 -0 -0 -0 -0 -0 -0 -0 -0 -0 -0 -0 -0 -0 -0 -0 -0 -0 -0 -0 -0 -0 -0
-0 -0 -0 -0 -0 -0 -0 -0 -0 -0 -0 -0 -0 -0 -4 -2 -0 -0 -11 -0 -0 -0 -0 -0 -0 -0 -0 -0 -0 -0 -0 -0 -0 -0 -0 -0 -0 -0 -0 -0 -0 -0 -0 -0 -0 -0 -0 -0 -0 -0 -0 -31 -7 -2
-0 -0 -0 -0 -0 -0 -0 -0 -0 -0 -0 -0 -0 -4 -5 -0 -1 -0 -0 -0 -0 -0 -0 -0 -0 -0 -0 -0 -0 -0 -0 -0 -0 -0 -0 -0 -0 -0 -0 -0 -0 -0 -0 -0 -0 -0 -0 -8 -9 -43 -35 -60 -21 -0
-0 -0 -0 -0 -0 -0 -0 -0 -0 -0 -0 -0 -0 -0 -0 -7 -0 -0 -0 -0 -0 -0 -0 -0 -0 -0 -0 -0 -0 -0 -0 -0 -0 -0 -0 -0 -0 -0 -0 -0 -0 -0 -0 -0 -0 -5 -3 -99 -52 -40 -0 -56 -0 -0
-0 -0 -0 -0 -0 -0 -0 -0 -0 -0 -0 -0 -0 -0 -0 -0 -0 -14 -9 -0 -0 -0 -6 -0 -0 -0 -0 -0 -0 -0 -0 -0 -0 -0 -0 -0 -0 -0 -0 -0 -0 -0 -0 -0 -0 -0 -94 -107 -130 -150 -119 -4 -29 -10
-0 -0 -0 -0 -0 -0 -0 -0 -0 -0 -0 -0 -0 -0 -16 -0 -10 -4 -0 -7 -18 -0 -0 -0 -0 -0 -0 -0 -0 -0 -0 -0 -0 -0 -0 -0 -0 -0 -0 -0 -0 -0 -0 -1 -2 -0 -73 -76 -91 -79 -108 -0 -39 -10
-0 -0 -0 -0 -0 -0 -0 -0 -0 -0 -0 -0 -0 -0 -0 -14 -15 -5 -0 -0 -10 -0 -0 -0 -0 -0 -0 -0 -0 -0 -0 -0 -0 -0 -0 -2 -0 -0 -0 -0 -0 -0 -0 -3 -27 -35 -66 -116 -137 -131 -107 -120 -73 -47
-0 -0 -0 -0 -0 -0 -0 -0 -1 -0 -0 -0 -0 -0 -0 -9 -3 -0 -1 -11 -7 -0 -0 -0 -0 -0 -0 -0 -0 -0 -0 -0 -0 -0 -21 -0 -23 -21 -0 -0 -0 -21 -40 -3 -16 -13 -27 -64 -119 -63 -0 -0 -106 -0
-0 -0 -0 -0 -0 -0 -6 -10 -3 -0 -0 -1 -0 -1 -0 -1 -1 -0 -3 -9 -0 -7 -3 -8 -4 -0 -0 -0 -0 -0 -0 -51 -48 -10 -17 -24 -0 -0 -0 -0 -0 -0 -12 -0 -1 -0 -0 -0 -0 -0 -0 -0 -0 -0
-1 -0 -0 -0 -3 -2 -6 -9 -1 -11 -20 -0 -0 -0 -0 -0 -0 -1 -0 -0 -1 -1 -8 -67 -7 -57 -94 -70 -0 -41 -41 -51 -20 -1 -12 -0 -0 -0 -0 -0 -6 -3 -9 -0 -0 -0 -0 -0 -0 -0 -0 -0 -0 -0
-0 -0 -0 -5 -3 -6 -1 -3 -5 -28 -4 -0 -0 -0 -0 -0 -7 -3 -20 -15 -21 -9 -32 -44 -7 -8 -48 -45 -0 -1 -9 -15 -38 -23 -35 -0 -0 -0 -0 -22 -29 -4 -0 -0 -0 -0 -2 -0 -0 -0 -0 -0 -0 -0
-0 -0 -8 -0 -15 -21 -15 -5 -0 -18 -0 -2 -0 -1 -0 -0 -0 -7 -22 -16 -50 -21 -2 -11 -10 -1 -6 -19 -0 -0 -5 -20 -25 -109 -0 -0 -0 -0 -0 -47 -22 -0 -0 -0 -0 -0 -0 -0 -0 -0 -0 -0 -0 -0
-0 -0 -3 -19 -24 -35 -19 -3 -5 -8 -1 -0 -0 -0 -0 -0 -0 -0 -43 -27 -27 -2 -2 -14 -1 -0 -1 -13 -0 -0 -0 -0 -0 -0 -0 -0 -0 -0 -34 -14 -0 -0 -0 -0 -0 -0 -0 -0 -0 -0 -0 -0 -0 -0
-0 -15 -7 -1 -8 -45 -21 -5 -0 -0 -0 -4 -0 -0 -0 -0 -0 -0 -0 -40 -20 -4 -3 -0 -0 -0 -22 -14 -0 -0 -0 -0 -0 -0 -0 -0 -0 -0 -84 -0 -0 -0 -0 -0 -0 -0 -0 -0 -0 -0 -0 -0 -0 -0
-6 -0 -43 -6 -0 -24 -17 -0 -3 -0 -2 -4 -0 -0 -0 -0 -0 -0 -0 -0 -44 -15 -6 -0 -0 -0 -15 -0 -0 -93 -0 -0 -0 -0 -47 -0 -0 -52 -52 -0 -0 -0 -0 -0 -0 -0 -62 -72 -0 -37 -0 -0 -0 -0
-0 -0 -3 -1 -2 -0 -2 -1 -6 -0 -0 -0 -0 -0 -0 -0 -0 -0 -0 -0 -44 -7 -3 -3 -36 -35 -41 -0 -96 -123 -0 -0 -0 -48 -67 -98 -2 -131 -84 -48 -46 -18 -39 -0 -36 -49 -48 -103 -137 -0 -0 -0 -0 -0
-14 -21 -1 -10 -12 -0 -0 -1 -0 -1 -10 -0 -0 -0 -0 -0 -0 -0 -0 -0 -16 -10 -5 -0 -0 -0 -0 -110 -21 -0 -90 -0 -0 -89 -55 -58 -9 -117 -66 -0 -78 -47 -31 -54 -55 -36 -49 -90 -0 -0 -0 -0 -0 -0
-4 -4 -3 -9 -0 -0 -0 -10 -0 -0 -0 -0 -0 -0 -0 -0 -0 -0 -0 -0 -0 -0 -0 -0 -0 -0 -0 -54 -53 -110 -109 -112 -86 -82 -23 -0 -82 -118 -123 -126 -22 -48 -26 -27 -43 -33 -81 -0 -21 -0 -0 -0 -0 -0
-14 -7 -3 -0 -0 -0 -0 -0 -0 -4 -0 -5 -0 -2 -3 -27 -15 -0 -0 -0 -0 -0 -0 -0 -0 -0 -0 -0 -48 -120 -110 -97 -75 -78 -79 -96 -141 -143 -163 -130 -74 -44 -12 -44 -38 -38 -0 -0 -0 -0 -0 -0 -0 -0
-9 -0 -0 -0 -0 -0 -0 -2 -1 -1 -7 -8 -0 -0 -1 -10 -2 -53 -27 -57 -24 -0 -0 -0 -0 -0 -0 -132 -110 -69 -0 -68 -56 -52 -50 -115 -105 -130 -131 -153 -27 -107 -86 -42 -0 -0 -0 -0 -0 -0 -0 -0 -0 -0
-0 -0 -1 -0 -0 -0 -0 -1 -1 -2 -0 -0 -0 -0 -0 -23 -12 -16 -35 -0 -2 -0 -0 -0 -0 -0 -0 -4 -132 -96 -95 -55 -18 -25 -86 -125 -154 -162 -172 -135 -114 -136 -0 -103 -0 -0 -0 -0 -0 -0 -0 -0 -0 -0
-1 -1 -0 -3 -1 -1 -1 -0 -1 -0 -0 -0 -0 -2 -8 -3 -6 -8 -23 -47 -31 -0 -0 -151 -0 -0 -58 -101 -107 -96 -35 -25 -62 -69 -109 -158 -150 -140 -32 -70 -76 -75 -122 -98 -93 -0 -0 -0 -33 -77 -73 -132 -0 -0
-0 -1 -0 -0 -0 -0 -1 -5 -0 -0 -0 -0 -0 -0 -0 -0 -0 -18 -0 -0 -0 -0 -0 -0 -125 -227 -152 -136 -101 -76 -43 -57 -75 -10 -152 -123 -0 -0 -83 -56 -52 -65 -62 -102 -0 -0 -0 -34 -73 -82 -92 -0 -0 -0
-11 -0 -0 -7 -6 -10 -1 -0 -0 -0 -0 -0 -0 -0 -0 -0 -0 -3 -0 -0 -0 -0 -0 -0 -233 -209 -160 -141 -105 -58 -13 -19 -55 -99 -130 -98 -98 -106 -23 -18 -0 -127 -0 -0 -0 -0 -0 -106 -104 -106 -36 -0 -0 -0
-0 -0 -0 -0 -0 -11 -0 -0 -0 -8 -7 -2 -0 -0 -4 -21 -0 -0 -0 -0 -0 -0 -0 -0 -14 -131 -110 -73 -40 -25 -41 -52 -70 -65 -53 -48 -0 -49 -0 -0 -0 -0 -0 -0 -0 -0 -57 -70 -84 -98 -0 -0 -0 -0
-0 -0 -0 -0 -2 -0 -0 -0 -0 -0 -0 -0 -0 -0 -0 -0 -0 -0 -0 -0 -85 -16 -19 -88 -92 -55 -37 -21 -20 -54 -84 -140 -173 -0 -77 -70 -0 -0 -0 -0 -0 -0 -0 -0 -0 -0 -0 -59 -6 -28 -0 -0 -0 -0
-0 -0 -0 -0 -0 -0 -0 -0 -0 -0 -0 -0 -0 -0 -0 -0 -62 -110 -0 -0 -0 -72 -55 -49 -39 -57 -51 -31 -39 -69 -96 -165 -9 -0 -0 -0 -0 -0 -0 -0 -0 -0 -0 -0 -10 -136 -121 -115 -0 -0 -0 -0 -0 -0
-0 -0 -0 -0 -0 -0 -0 -0 -0 -0 -0 -0 -0 -0 -0 -0 -35 -51 -64 -0 -75 -0 -80 -52 -36 -44 -44 -72 -109 -0 -6 -5 -0 -0 -0 -0 -0 -0 -0 -0 -0 -0 -0 -0 -0 -0 -6 -1 -0 -60 -0 -0 -0 -0
-0 -0 -0 -0 -0 -0 -0 -0 -0 -0 -0 -0 -0 -0 -0 -0 -14 -79 -131 -146 -78 -51 -50 -7 -73 -83 -103 -106 -51 -171 -0 -166 -28 -0 -0 -0 -0 -0 -0 -0 -0 -0 -0 -0 -153 -0 -0 -0 -0 -12 -0 -0 -0 -0
Wind_Speed
9 11 12 13 13 15 16 17 15 15 16 17 17 17 16 17 17 6 4 3 3 2 7 5 4 5 2 3 3 4 4 4 4 4 3 3 2 2 2 3 2 2 1 2 1 3 7 5 7 4 7 3 6 6
8 10 11 12 11 14 15 15 16 16 15 15 15 16 15 15 15 8 2 4 1 3 7 4 6 9 7 8 5 1 4 3 5 5 0 2 0 1 3 3 4 2 6 4 7 7 7 13 7 9 5 7 7 7
9 10 10 11 12 13 14 14 14 15 15 14 15 15 15 13 13 10 3 3 3 3 6 4 6 5 4 12 8 4 3 3 2 4 4 2 1 4 1 5 2 3 3 4 3 5 12 10 10 11 11 13 10 13
8 9 10 11 12 14 15 14 15 14 14 15 16 14 13 13 12 11 2 1 0 1 3 9 4 5 4 5 13 12 3 4 5 3 3 3 2 3 4 4 5 6 4 5 7 11 8 12 13 19 20 19 18 18
8 9 9 11 12 13 15 15 15 15 15 15 16 15 14 12 12 7 4 3 2 0 4 8 11 5 5 3 11 11 4 3 1 2 3 3 2 2 1 1 5 5 8 5 7 12 12 12 17 22 19 18 20 17
8 8 9 11 12 13 13 14 15 15 16 15 15 15 15 11 11 3 1 1 1 2 2 5 5 5 5 3 9 9 6 3 3 5 3 0 0 4 2 3 8 6 5 6 10 6 15 17 20 19 18 20 17 20
9 9 10 11 12 13 13 14 14 16 17 14 15 15 14 10 2 1 2 2 6 1 1 6 7 5 5 2 3 3 3 2 3 2 2 3 1 2 3 4 8 7 8 9 16 12 12 12 13 18 13 13 17 17
10 10 11 13 13 13 13 14 15 16 17 17 17 16 13 14 5 3 2 5 3 3 2 3 7 6 2 0 3 1 3 3 4 3 2 3 1 2 4 10 9 9 11 14 14 14 13 16 15 10 7 9 11 10
10 11 12 12 13 12 13 14 15 17 18 19 17 12 2 1 1 1 1 2 0 3 2 3 2 4 6 2 2 3 2 2 1 2 2 4 2 6 9 8 8 9 8 14 15 15 13 10 10 8 7 7 7 7
12 12 12 13 13 13 13 14 15 18 20 16 2 2 0 1 2 3 1 1 2 1 2 3 2 5 3 2 2 3 2 2 1 3 3 2 5 7 9 11 9 10 11 12 9 11 11 11 7 6 3 2 4 5
12 12 11 13 15 14 13 13 14 16 9 3 3 2 3 6 1 2 1 2 2 3 3 4 4 3 3 0 2 1 3 1 1 3 3 3 4 5 6 7 6 7 7 10 9 11 10 9 5 6 7 6 2 2
12 11 12 13 15 15 14 12 11 4 2 1 3 4 3 2 2 2 3 2 4 4 3 3 4 6 5 2 2 1 3 2 4 4 2 3 3 4 6 7 8 7 8 9 7 7 7 9 7 7 7 7 9 8
12 11 13 14 15 16 14 12 10 8 6 2 2 3 2 1 2 4 3 3 1 2 0 2 3 4 2 1 3 3 3 4 3 2 4 2 3 5 6 5 6 6 6 7 7 6 7 8 8 8 9 8 11 11
10 12 14 15 16 11 10 9 6 2 2 2 2 4 4 3 4 1 2 2 3 2 3 2 2 2 2 1 3 3 2 1 3 3 3 2 4 5 5 5 3 6 6 6 6 6 7 9 10 11 10 9 11 11
10 13 16 10 8 13 10 3 8 2 1 3 2 4 5 4 1 2 3 2 3 2 4 2 1 1 3 1 1 3 2 4 4 2 2 4 3 4 3 2 4 3 5 5 6 6 9 8 9 11 8 9 10 9
10 12 1 5 9 9 8 7 1 0 2 3 4 4 3 3 3 2 3 3 1 2 2 1 0 3 1 3 4 5 4 4 2 2 3 2 3 2 2 4 3 6 6 6 8 8 8 8 8 6 5 6 6 5
7 3 1 7 12 9 2 1 1 3 3 4 5 3 3 3 5 4 3 3 0 1 3 1 1 5 2 3 3 4 5 4 3 3 2 3 1 1 3 5 7 6 6 8 8 5 5 4 5 5 7 5 6 6
3 3 2 7 10 4 1 2 2 3 5 5 3 2 3 4 4 5 4 3 3 1 1 3 2 4 3 3 2 2 2 2 2 3 2 0 3 4 6 5 7 7 7 6 5 4 4 4 6 4 6 6 6 6
5 5 9 10 5 3 2 2 2 3 4 3 4 3 4 5 5 8 7 4 4 3 2 3 7 5 3 2 2 2 2 1 2 2 2 1 4 7 7 5 9 7 5 4 4 3 2 4 4 4 4 4 4 3
12 12 13 11 5 1 3 3 2 3 4 3 3 3 4 5 3 4 5 4 5 4 4 4 3 2 3 4 3 4 3 1 1 1 0 2 3 7 7 5 5 5 4 4 3 5 3 4 4 4 4 5 5 4
4 3 3 3 2 2 3 3 3 3 4 4 3 3 5 2 4 4 4 4 3 4 4 4 2 4 3 2 3 3 1 1 2 3 1 2 1 5 5 4 5 4 2 2 3 3 1 2 1 3 4 3 2 3
2 2 0 1 2 3 4 3 3 3 3 4 3 3 4 3 3 3 3 2 3 4 4 4 4 4 1 2 4 4 3 3 2 0 2 1 3 5 6 6 6 6 3 3 2 2 0 1 2 2 4 3 3 3
3 0 1 2 2 1 5 2 4 3 4 4 2 3 3 3 3 3 2 3 4 4 5 7 9 6 6 3 2 2 3 3 4 3 3 4 2 3 5 6 5 7 6 4 3 2 3 2 5 5 5 5 5 4
1 2 2 2 3 4 2 3 3 3 3 3 3 3 3 3 3 0 3 2 1 4 2 5 4 2 1 1 2 2 1 3 4 4 2 3 3 2 4 4 4 3 3 4 4 4 3 3 5 5 5 5 4 4
2 2 1 4 3 3 3 4 4 3 2 3 3 3 2 2 2 2 2 3 2 3 4 2 4 4 4 2 1 2 2 4 1 4 4 3 4 5 5 4 3 4 4 5 3 4 3 3 3 5 4 4 6 5
1 3 4 3 2 3 3 3 3 3 4 3 3 3 2 3 2 3 2 2 2 2 3 3 1 2 3 3 4 3 2 1 1 2 3 1 4 6 7 7 4 1 2 4 6 5 4 4 5 6 5 5 6 6
2 4 3 4 3 2 3 4 3 3 3 3 3 5 5 4 3 3 3 2 2 3 4 5 4 4 4 4 4 4 4 3 3 2 2 2 4 3 6 7 6 4 4 5 6 7 6 5 5 5 5 3 3 4
4 3 3 2 3 2 3 3 3 3 3 2 2 2 2 3 4 3 4 3 4 5 6 5 1 4 5 3 5 5 3 3 2 1 1 4 3 4 3 4 4 11 5 5 6 5 4 5 5 5 6 5 3 3
4 3 1 5 4 3 3 4 3 3 1 2 5 2 2 4 4 4 5 3 3 2 3 2 4 5 6 4 4 3 3 3 1 3 4 5 4 1 2 4 4 4 4 4 5 4 6 5 6 5 5 4 2 1
4 3 3 3 2 4 4 5 4 4 4 6 5 6 4 4 9 6 3 3 1 2 2 2 3 5 5 5 3 2 2 1 2 4 7 7 6 4 5 5 4 4 3 4 4 3 6 6 7 4 3 2 1 1
3 1 3 3 5 5 7 6 7 8 8 8 7 7 5 4 4 3 4 3 2 3 1 3 3 4 7 5 3 3 2 1 2 2 4 5 5 5 5 5 5 5 5 5 5 5 6 4 4 5 4 3 3 4
2 2 2 3 5 5 4 2 2 3 3 3 3 1 2 4 3 2 4 2 2 3 2 3 4 3 3 4 4 3 2 2 3 2 7 6 6 6 5 5 5 5 6 6 5 5 5 6 5 4 3 3 6 6
2 2 3 3 4 4 4 1 3 4 2 3 3 3 3 4 4 4 3 1 2 1 3 3 4 4 5 5 4 3 1 2 3 3 2 7 11 9 6 6 6 6 7 5 5 4 5 5 4 4 3 2 5 4
Wind_Direction
305 314 319 325 326 329 330 330 333 338 337 335 340 342 350 350 350 2 285 321 76 234 273 221 235 198 168 106 171 265 37 341 39 69 126 206 169 264 11 282 183 203 354 307 94 239 274 211 349 114 228 246 272 266
314 317 320 318 331 330 326 332 334 335 333 334 338 338 342 347 347 9 316 321 16 187 251 250 238 254 227 167 161 328 183 199 194 94 96 107 29 34 143 286 325 286 183 206 185 228 254 296 250 264 215 244 266 242
314 316 320 328 326 325 328 328 333 327 328 333 334 333 336 341 342 353 292 292 8 344 298 349 242 269 251 225 196 146 275 196 176 170 154 149 193 126 188 244 239 276 174 221 360 272 254 275 283 277 281 278 274 279
312 315 322 323 324 324 327 326 322 326 329 333 329 332 334 336 331 340 283 244 223 285 291 281 330 300 280 178 188 199 161 70 100 84 109 131 175 167 205 236 209 206 169 223 260 281 279 279 299 299 297 290 283 275
310 312 320 320 321 327 328 331 333 335 333 333 330 328 330 336 326 313 247 239 225 269 285 283 308 270 285 206 186 192 167 108 114 74 93 212 175 119 356 11 255 189 200 179 263 292 292 280 289 290 286 280 282 272
310 318 321 320 323 324 325 325 324 324 320 322 325 326 323 336 340 332 132 86 120 35 290 301 294 291 314 276 178 176 164 146 123 141 195 161 226 105 114 253 261 244 262 248 274 259 290 283 281 276 280 282 283 275
306 314 314 314 320 323 323 323 323 322 323 324 318 315 321 318 321 204 284 305 318 350 55 303 312 285 297 94 76 101 76 118 109 143 125 136 182 112 156 224 261 263 261 283 287 295 280 277 286 297 287 280 287 288
306 309 313 322 321 318 320 321 322 319 317 315 311 307 305 298 276 266 263 269 164 98 78 282 276 324 266 230 100 102 91 47 19 139 86 120 62 71 257 245 272 282 291 287 298 310 277 278 293 284 275 292 326 332
308 313 316 316 321 318 318 321 321 319 316 310 309 306 343 82 294 318 324 19 138 133 281 254 264 275 349 1 108 49 85 89 320 119 191 109 147 230 229 254 271 284 288 294 312 317 302 295 289 287 288 313 336 339
311 309 312 312 313 314 315 319 321 319 315 314 18 32 207 328 352 332 357 27 9 1 15 254 286 271 9 353 38 93 37 133 154 249 106 145 253 257 254 245 260 274 276 301 311 327 311 315 311 308 274 317 338 16
310 308 311 313 316 323 314 316 318 326 327 11 3 316 314 305 3 209 214 198 136 246 198 235 207 266 298 180 170 123 156 141 155 246 156 213 255 241 254 278 282 282 289 290 295 291 285 262 290 358 4 17 265 113
306 312 315 311 310 311 308 304 304 335 278 280 265 274 271 267 220 243 220 189 209 233 200 210 226 198 269 186 116 332 109 72 240 155 217 243 247 267 312 303 307 310 296 319 17 26 21 45 45 55 51 42 50 63
306 313 308 307 307 308 299 297 292 264 294 274 223 252 235 206 285 206 211 192 207 200 105 277 283 219 258 181 69 93 127 218 124 211 233 228 260 292 297 302 302 310 350 25 32 59 51 59 58 51 56 46 59 58
311 312 310 311 310 315 293 267 278 163 229 256 244 272 215 202 250 66 350 353 322 274 289 266 267 300 311 164 147 129 226 132 232 228 225 218 252 288 316 294 326 332 17 66 40 55 60 58 58 56 62 69 75 71
313 313 311 306 331 342 330 217 155 165 237 258 248 243 231 260 327 283 265 280 293 340 339 349 287 324 298 239 62 101 128 244 241 238 233 244 271 299 309 315 345 32 60 64 52 61 69 65 67 67 55 76 79 74
318 318 309 351 348 349 41 99 107 205 252 245 236 260 264 340 273 203 281 270 251 320 310 282 218 262 322 232 170 200 176 221 239 210 232 283 302 348 315 45 16 79 82 75 68 66 78 84 90 83 68 65 76 83
318 241 0 3 347 330 246 283 203 225 250 232 237 240 242 274 250 251 230 227 150 295 223 94 275 223 219 215 186 180 197 224 214 248 238 232 209 190 109 68 79 81 86 87 89 82 76 66 67 52 53 44 68 72
249 271 191 351 347 310 255 224 246 251 245 234 251 233 210 225 249 269 245 191 158 257 243 211 349 250 230 147 223 217 275 298 245 247 251 277 124 155 102 100 84 99 95 90 86 82 71 77 69 65 72 68 64 59
248 253 279 300 305 315 302 234 212 271 255 255 256 217 226 245 234 245 254 243 184 138 193 220 222 218 195 201 245 353 332 235 281 280 279 112 150 138 107 98 95 93 85 82 64 71 49 64 104 99 105 84 73 62
292 272 265 259 231 217 269 243 196 259 274 282 274 258 224 225 228 221 234 176 154 173 210 229 242 240 169 180 185 208 229 204 281 359 250 78 129 136 131 133 117 112 101 102 65 47 38 43 34 63 56 75 87 78
301 256 357 109 82 198 288 303 255 238 274 256 268 236 253 249 227 217 228 157 158 207 223 241 266 285 321 143 215 222 24 101 258 218 155 123 168 167 146 140 128 122 127 141 130 132 74 94 135 112 89 65 89 123
266 28 298 108 183 202 240 229 257 287 274 268 289 227 272 275 253 228 172 156 221 195 200 214 230 272 292 173 221 224 204 200 179 180 28 348 59 157 158 165 159 166 158 159 170 159 82 129 122 70 92 104 106 97
306 230 244 237 257 235 262 195 246 225 254 254 272 276 254 251 211 129 205 214 248 235 199 201 220 223 236 262 195 197 193 106 72 6 318 291 265 168 131 154 165 160 163 163 191 166 137 117 72 94 88 75 85 70
340 267 242 229 208 261 294 244 225 249 257 265 264 259 275 279 332 275 247 217 236 317 329 214 171 191 48 137 174 207 96 87 50 307 283 243 188 125 125 130 126 131 125 135 140 132 124 104 117 113 125 127 130 116
289 262 167 264 247 249 249 255 240 240 265 260 255 253 270 312 282 285 247 281 300 303 324 323 190 173 167 206 152 123 79 85 313 273 290 198 133 93 83 107 129 113 121 119 125 132 110 111 90 102 105 119 124 113
251 212 197 257 202 235 287 288 308 322 289 269 285 334 312 312 275 254 259 289 282 280 324 346 298 183 209 173 133 126 76 116 172 272 291 56 110 130 135 130 113 98 187 152 129 127 143 147 143 147 154 124 113 107
275 271 238 217 246 208 259 247 256 255 264 288 345 341 345 325 340 308 302 286 289 278 273 272 226 180 169 145 120 117 125 153 188 220 302 58 128 124 140 135 149 160 148 149 132 137 157 162 159 139 131 124 132 141
242 245 242 307 249 240 266 278 266 265 220 219 237 307 322 226 254 254 246 258 288 295 301 304 310 139 123 141 120 124 146 182 168 279 104 66 102 110 99 90 103 131 117 118 132 142 132 116 120 122 124 143 178 197
258 252 17 277 246 226 229 230 256 261 266 318 317 286 239 223 249 259 269 292 280 265 314 8 43 85 86 78 89 119 112 84 75 51 132 129 121 286 132 121 116 101 111 99 94 123 155 145 148 153 155 147 152 93
259 174 229 269 235 252 238 196 236 238 249 258 237 270 261 232 261 284 252 197 175 318 287 96 109 117 127 128 108 57 26 359 21 186 168 167 175 161 133 132 128 136 130 115 127 87 105 99 78 72 95 108 133 171
255 290 269 255 253 246 250 249 254 269 267 262 238 230 232 266 309 291 306 323 286 201 173 86 61 123 122 133 178 148 274 304 292 97 121 118 128 136 149 141 144 129 124 124 122 120 115 97 123 136 153 147 159 165
292 243 238 300 292 283 298 233 238 257 282 295 285 199 153 158 170 282 285 301 138 142 160 113 109 112 157 157 148 138 138 339 334 40 114 126 139 153 138 130 127 129 128 126 133 132 139 151 148 134 125 130 169 188
244 254 251 281 293 285 282 293 278 279 268 280 269 236 209 169 125 204 279 280 345 21 113 123 124 126 123 128 129 124 187 280 333 1 84 150 140 137 134 137 141 139 132 140 156 159 157 137 131 140 139 154 192 229